Weather History for Monroe, NC

Change the Weather History Date:

Friday, September 13, 2013

  Actual Average (KCLT) Record (KCLT)
Temperature  
Mean Temperature 77 °F 72 °F  
Max Temperature 88 °F 82 °F 94 °F (1962)
Min Temperature 68 °F 62 °F 49 °F (1917)
Degree Days  
Heating Degree Days 0 0  
Month to date heating degree days 0  
Since 1 July heating degree days 0  
Cooling Degree Days 12 7  
Month to date cooling degree days 115  
Year to date cooling degree days 1392  
Growing Degree Days 27 (Base 50)    
Moisture  
Dew Point 59 °F    
Average Humidity 59    
Maximum Humidity 96    
Minimum Humidity 32    
Precipitation  
Precipitation 0.00 in 0.11 in 4.12 in (1933)
Month to date precipitation 1.40  
Year to date precipitation 30.00  
Snow  
Snow 0.00 in 0.00 in 0.00 in ()
Month to date snowfall 0.0  
Since 1 July snowfall 0.0  
Since 1 September snowfall 0.0  
Snow Depth -    
Sea Level Pressure  
Sea Level Pressure 29.83 in    
Wind  
Wind Speed 6 mph (NW)    
Max Wind Speed 12 mph    
Max Gust Speed 18 mph    
Visibility 9 miles    
Events      
T = Trace of Precipitation, MM = Missing Value Source: NWS Daily Summary

Daily Weather History Graph

Daily Weather History Graph

Search for Another Location

Airport:

Trip Planner

Search our weather history database for the weather conditions in past years. The results will help you decide how hot, cold, wet, or windy it might be!

Date:

Astronomy

Sep. 13, 2013 Rise Set
Actual Time 7:04 AM EDT 7:31 PM EDT
Civil Twilight 6:38 AM EDT 7:57 PM EDT
Nautical Twilight 6:08 AM EDT 8:27 PM EDT
Astronomical Twilight 5:38 AM EDT 8:57 PM EDT
Moon 3:10 PM EDT (9/13) 12:42 AM EDT (9/13)
Length of Visible Light 13h 18m
Length of Day
12h 27m
First Quarter, 61% of the Moon is Illuminated
Sep 13
First Quarter
Sep 19
Full
Sep 26
Last Quarter
Oct 4
New
Oct 11
First Quarter

Hourly Weather History & Observations

Time (EDT) Temp. Heat Index Dew Point Humidity Pressure Visibility Wind Dir Wind Speed Gust Speed Precip Events Conditions
12:53 AM 72.0 °F - 66.9 °F 84% 29.84 in 10.0 mi WSW 5.8 mph - N/A   Clear
1:53 AM 70.0 °F - 66.9 °F 90% 29.83 in 9.0 mi SW 4.6 mph - N/A   Clear
2:53 AM 71.1 °F - 68.0 °F 90% 29.81 in 9.0 mi West 4.6 mph - N/A   Clear
3:53 AM 70.0 °F - 68.0 °F 93% 29.80 in 7.0 mi WSW 8.1 mph - 0.00 in   Clear
4:53 AM 70.0 °F - 68.0 °F 93% 29.81 in 7.0 mi WSW 4.6 mph - N/A   Clear
5:53 AM 68.0 °F - 66.9 °F 96% 29.80 in 4.0 mi SW 3.5 mph - N/A   Clear
6:53 AM 69.1 °F - 68.0 °F 96% 29.83 in 7.0 mi Calm Calm - N/A   Clear
7:53 AM 71.1 °F - 66.0 °F 84% 29.84 in 5.0 mi North 5.8 mph - N/A   Haze
8:53 AM 75.9 °F - 64.0 °F 67% 29.84 in 10.0 mi NNE 11.5 mph - N/A   Clear
9:53 AM 79.0 °F - 61.0 °F 54% 29.85 in 10.0 mi North 6.9 mph - N/A   Overcast
10:53 AM 82.0 °F 82.1 °F 59.0 °F 45% 29.85 in 10.0 mi North 11.5 mph 18.4 mph N/A   Clear
11:53 AM 82.9 °F 82.4 °F 57.0 °F 41% 29.85 in 10.0 mi NW 5.8 mph - N/A   Clear
12:53 PM 84.0 °F 83.0 °F 55.9 °F 38% 29.84 in 10.0 mi WNW 6.9 mph - N/A   Clear
1:53 PM 84.9 °F 83.9 °F 57.0 °F 38% 29.82 in 10.0 mi WNW 10.4 mph - N/A   Clear
2:53 PM 86.0 °F 84.0 °F 53.1 °F 32% 29.80 in 10.0 mi Variable 4.6 mph - N/A   Partly Cloudy
3:53 PM 86.0 °F 84.5 °F 55.0 °F 35% 29.78 in 10.0 mi Variable 5.8 mph - N/A   Partly Cloudy
4:53 PM 86.0 °F 84.2 °F 54.0 °F 33% 29.78 in 10.0 mi NNW 9.2 mph - N/A   Scattered Clouds
5:53 PM 84.0 °F 82.6 °F 54.0 °F 35% 29.78 in 10.0 mi NW 3.5 mph - N/A   Partly Cloudy
6:53 PM 82.0 °F 81.7 °F 57.0 °F 42% 29.80 in 10.0 mi North 9.2 mph - N/A   Mostly Cloudy
7:53 PM 78.1 °F - 55.0 °F 45% 29.83 in 10.0 mi NNE 9.2 mph - N/A   Mostly Cloudy
8:53 PM 75.0 °F - 53.1 °F 46% 29.86 in 10.0 mi North 9.2 mph - N/A   Partly Cloudy
9:53 PM 72.0 °F - 53.1 °F 51% 29.88 in 10.0 mi NNE 9.2 mph - N/A   Partly Cloudy
10:53 PM 71.1 °F - 51.1 °F 49% 29.91 in 10.0 mi North 8.1 mph - N/A   Overcast
11:53 PM 70.0 °F - 50.0 °F 49% 29.91 in 10.0 mi NNE 9.2 mph - N/A   Mostly Cloudy